Location: BAF
(53.9483°N, 27.7497°E)
Time: 23:38:30
(UTC+02:00)

ISS - Pass Details

Date: 02 December 2020
Orbit: 418 x 419 km, 51.6° (Epoch: 16 January)

Event Time Altitude Azimuth Distance (km) Brightness Sun altitude
Rises 17:33:27 0° 270° (W) 2,368 1.6 -14.1°
Reaches altitude 10° 17:35:35 10° 266° (W) 1,503 0.4 -14.4°
Maximum altitude 17:38:53 55° 188° (S) 513 -3.2 -14.9°
Enters shadow 17:40:41 24° 118° (ESE) 926 -2.4 -15.1°
